This demonstration page uses our WeatherBlox Daily Observations layout. Learn more.

Left ArrowRight Arrow

Hourly Observations for April 11, 2020

Temp ( °F °C ) Dew Point ( °F °C ) Humidity (%) Winds ( mph kmh ) Pressure ( in mb ) Visibility ( mi km ) Precip ( " mm )
12:54 am 00:54 Hazy 42 5.6 25 -3.9 51 51 SSE 7 11 29.8 1009 4 6.43736 0 0
1:54 am 01:54 Hazy 43 6.1 27 -2.8 53 53 S 6 9 29.78 1009 4 6.43736 0 0
2:54 am 02:54 Hazy 41 5 28 -2.2 60 60 S 9 15 29.74 1007 4 6.43736 0 0
3:54 am 03:54 Hazy 43 6.1 29 -1.7 58 58 SSE 7 11 29.72 1006 4 6.43736 0 0
4:54 am 04:54 Cloudy with Haze 47 8.3 30 -1.1 52 52 NNW 5 7 29.72 1006 4 6.43736 0 0
5:54 am 05:54 Cloudy with Haze 44 6.7 35 1.7 71 71 N 3 6 29.71 1006 4 6.43736 0.001 0.001
6:54 am 06:54 Mostly Cloudy with Haze 45 7.2 36 2.2 71 71 SSE 5 7 29.69 1006 4 6.43736 0.001 0.001
7:54 am 07:54 Hazy 45 7.2 38 3.3 77 77 Calm 29.7 1006 2.5 4.02335 0 0
8:04 am 08:04 Hazy 47 8.3 40 4.4 77 77 Calm 29.72 1006 5 8.0467 0 0
8:54 am 08:54 Hazy 51 10.6 37 2.8 59 59 SSE 5 7 29.68 1005 6 9.65604 0 0
9:54 am 09:54 Partly Cloudy 53 11.7 37 2.8 55 55 Calm 29.67 1005 7 11.26538 0 0
10:54 am 10:54 Partly Cloudy 57 13.9 39 3.9 51 51 NW 3 6 29.68 1005 7 11.26538 0 0
11:54 am 11:54 Mostly Sunny 62 16.7 41 5 46 46 E 6 9 29.64 1004 10 16.0934 0 0
12:54 pm 12:54 Sunny 65 18.3 41 5 42 42 ENE 6 9 29.62 1003 10 16.0934 0 0
1:54 pm 13:54 Sunny 68 20 42 5.6 39 39 VRB 3 6 29.6 1002 10 16.0934 0 0
2:54 pm 14:54 Sunny 70 21.1 43 6.1 38 38 E 5 7 29.58 1002 10 16.0934 0 0
3:54 pm 15:54 Sunny 71 21.7 44 6.7 38 38 SE 3 6 29.55 1001 10 16.0934 0 0
4:54 pm 16:54 Sunny 73 22.8 43 6.1 34 34 NNW 6 9 29.53 1000 10 16.0934 0 0
5:54 pm 17:54 Sunny 73 22.8 44 6.7 35 35 NE 8 13 29.53 1000 10 16.0934 0 0
6:54 pm 18:54 Sunny 70 21.1 45 7.2 41 41 NNE 7 11 29.53 1000 10 16.0934 0 0
7:54 pm 19:54 Sunny 63 17.2 43 6.1 48 48 NNE 12 19 29.54 1000 10 16.0934 0 0
8:54 pm 20:54 Clear 55 12.8 34 1.1 45 45 N 14 22 29.57 1001 7 11.26538 0 0
9:54 pm 21:54 Clear 53 11.7 32 0 45 45 N 12 19 29.6 1002 9 14.48406 0 0
10:54 pm 22:54 Clear 51 10.6 33 0.6 50 50 NNE 16 26 29.58 1002 7 11.26538 0 0
11:54 pm 23:54 Hazy 49 9.4 33 0.6 55 55 N 13 20 29.55 1001 6 9.65604 0 0

Powered by AerisWeather